Theta_e
329 330 329 325 323 323 322 323 324 324 323 322 322 323 322 321 319 318 317 315 314 315 315 316 316 316 316 316 315 313 313 314 314 314 313 313 313 313 313 313 313 313 314 315 314 313 312 312 313 312 312 313 313 313 314 315 315 316 318 317 315 315 314 312 309 308 310 311 308 307 307 307 307 308 309 309 308 308 308 307 307 307 308 308 308
329 329 328 326 325 324 323 323 323 323 322 322 322 322 322 321 319 318 316 314 315 315 314 314 315 316 316 315 315 314 314 315 315 315 314 314 314 314 315 314 313 313 314 314 314 314 313 313 313 313 313 313 314 314 314 315 315 315 315 315 314 313 312 311 309 307 307 309 309 308 307 307 308 308 309 309 309 308 308 308 307 307 308 309 308
325 326 326 325 325 324 323 323 323 322 322 321 322 322 321 320 319 318 316 315 316 316 315 314 315 316 316 315 315 314 314 315 315 315 314 315 315 315 315 315 314 313 313 313 313 313 313 313 315 315 314 314 314 314 314 315 315 313 312 312 312 311 310 310 308 307 307 308 308 308 307 307 307 308 309 309 309 309 308 308 308 307 308 308 308
323 324 324 324 324 323 323 322 322 321 321 321 321 321 321 320 319 318 317 316 316 317 316 316 316 316 315 316 315 315 315 315 315 314 315 315 314 314 314 314 314 314 313 313 313 312 312 312 314 315 315 315 315 315 315 314 314 313 312 311 311 311 309 309 308 307 306 307 307 307 307 307 308 309 308 308 309 309 308 308 308 309 308 308 308
324 324 325 325 324 323 323 322 321 321 321 320 320 321 321 320 319 319 317 317 316 317 318 317 316 316 316 316 316 316 317 316 315 315 316 316 314 313 314 314 313 313 313 313 314 314 313 313 313 314 315 315 315 315 315 314 314 314 313 312 312 311 309 309 308 307 307 307 307 308 308 309 309 308 308 308 309 309 309 309 309 309 308 308 308
325 324 324 325 325 324 323 322 321 321 321 320 320 321 321 320 319 319 318 317 316 317 318 318 317 317 317 317 316 317 317 317 317 315 315 316 315 314 315 315 315 315 314 314 316 316 317 316 315 314 314 314 315 315 315 315 315 314 314 313 312 310 309 308 308 308 307 307 308 309 310 310 309 308 308 309 309 310 309 309 309 308 308 308 307
324 324 323 324 325 325 323 322 322 322 321 321 321 320 320 320 319 318 318 318 317 317 318 318 318 318 318 318 317 317 318 318 318 316 315 316 317 316 316 316 318 318 316 315 316 317 317 318 317 317 316 314 315 315 315 315 315 315 314 314 313 311 311 311 310 308 308 308 309 311 311 311 309 309 309 309 310 310 310 309 309 308 308 308 307
324 323 323 323 324 324 323 323 323 322 322 322 321 321 320 320 319 318 318 319 317 317 318 318 318 318 318 317 317 318 318 318 319 318 317 317 318 318 318 318 319 319 319 318 317 318 318 318 317 318 317 316 315 316 315 315 315 315 315 314 314 314 313 313 313 311 309 309 309 311 312 311 311 310 309 310 310 310 310 310 309 309 308 308 307
324 323 323 323 323 323 323 323 322 321 322 322 321 321 321 320 319 319 320 321 318 317 318 318 317 317 317 317 317 317 318 317 318 319 319 319 319 319 319 319 319 319 320 320 319 319 319 319 318 318 318 317 316 316 316 314 314 314 315 314 314 314 314 314 314 313 312 312 312 312 312 312 311 310 310 310 310 310 309 309 308 308 307 307 307
323 322 323 323 323 322 322 323 322 321 322 321 320 320 321 321 321 320 321 322 320 319 319 318 317 316 317 317 317 317 318 318 318 318 319 319 320 320 321 320 320 320 320 320 320 320 320 320 319 319 319 318 318 318 317 316 315 314 314 314 313 313 313 314 314 314 314 314 313 313 312 311 311 311 310 310 309 309 308 308 308 307 307 307 306
321 321 322 322 322 322 323 323 323 322 322 322 320 319 320 321 322 322 321 321 321 320 320 318 317 317 317 317 317 317 318 318 318 318 319 319 320 321 321 321 321 321 321 321 321 321 320 320 320 320 319 319 319 319 319 317 316 316 315 313 312 312 312 313 313 314 314 314 313 313 312 311 310 310 310 309 308 308 308 308 307 306 305 304 303
319 320 321 321 321 322 322 323 323 323 323 323 322 320 320 320 321 322 323 323 322 322 321 320 319 319 318 318 319 319 319 318 318 319 320 320 320 321 321 321 321 321 321 321 321 320 320 319 320 320 320 320 319 319 319 318 317 317 316 314 313 312 312 313 313 313 313 313 313 313 312 311 310 309 309 309 308 308 307 306 305 304 303 301 300
310 311 314 318 320 321 321 322 322 323 322 322 322 322 321 320 322 323 323 323 323 323 322 322 321 320 320 319 319 319 319 319 319 319 319 319 319 320 320 320 320 320 320 321 321 321 320 319 319 320 320 320 320 320 319 318 317 317 316 315 314 314 313 313 313 313 313 313 313 312 312 311 310 309 309 309 308 307 306 305 304 303 302 301 300
304 304 306 310 313 315 317 319 321 321 321 320 321 321 321 321 322 322 322 323 323 323 323 323 322 322 321 321 320 320 319 319 320 320 319 319 319 319 319 319 319 319 320 321 321 321 321 320 319 319 320 320 319 319 319 318 317 316 316 315 314 314 313 312 313 312 312 313 313 312 312 311 311 310 310 309 308 306 304 303 303 302 301 300 299
303 304 304 305 306 307 309 311 313 314 315 316 317 319 320 320 320 320 321 321 321 321 321 321 321 321 321 321 321 321 320 320 319 319 320 320 320 320 319 319 319 319 320 320 320 320 320 320 319 319 319 319 319 319 319 317 316 316 315 315 314 313 312 312 312 311 311 311 312 311 311 311 310 310 309 307 306 304 303 303 302 301 300 299 298
303 303 303 303 303 304 304 305 305 306 307 308 309 312 314 316 317 318 319 320 320 320 321 321 320 320 319 320 320 320 320 320 320 320 320 321 321 320 320 319 319 319 319 319 319 319 319 319 318 318 318 319 318 318 318 317 316 316 315 314 313 312 311 310 310 310 310 310 310 310 310 310 309 308 306 305 304 303 303 302 301 300 299 298 298
301 302 302 302 302 302 303 303 303 304 304 305 305 305 307 307 308 310 311 313 314 315 316 318 319 319 319 319 318 318 319 319 320 320 321 322 322 321 320 320 319 319 319 318 318 318 318 318 317 317 317 318 318 318 318 317 315 316 316 313 311 310 310 309 309 309 309 308 308 308 308 307 306 305 304 303 303 303 302 301 300 299 298 298 298
300 300 300 301 301 301 302 302 302 303 303 303 303 304 304 304 304 305 305 306 307 308 310 312 314 317 318 318 318 318 317 317 318 320 321 322 322 322 321 320 320 319 319 319 319 319 318 317 316 316 316 317 318 318 318 317 316 316 316 313 311 309 309 309 308 308 308 307 307 306 305 305 304 303 303 302 302 302 301 301 300 299 299 298 298
300 300 300 300 300 300 301 301 301 301 301 302 302 302 303 303 303 303 304 304 305 306 306 308 309 312 314 316 317 318 317 317 316 318 320 322 322 322 321 321 320 320 320 319 319 318 317 316 316 316 316 317 317 318 318 318 317 316 316 313 311 309 309 308 307 307 307 306 305 304 304 304 303 302 302 302 302 302 302 302 301 300 299 299 298
300 300 300 300 300 300 300 300 300 300 300 301 301 301 301 302 302 303 303 303 303 304 304 305 306 307 308 309 312 314 316 317 317 316 317 319 320 321 321 321 320 320 319 319 319 318 317 316 316 316 316 316 316 317 318 318 318 316 315 313 311 310 308 307 307 307 305 305 304 304 303 303 302 302 302 302 302 302 302 302 301 300 299 298 297
299 299 299 299 299 300 300 300 300 300 300 300 300 300 301 301 301 302 302 302 302 303 303 303 304 304 305 305 307 308 311 314 316 316 316 316 318 319 320 320 320 320 320 319 319 318 317 316 315 315 315 315 316 317 318 318 317 316 314 313 311 310 309 308 307 306 304 304 304 303 302 302 301 301 301 300 301 301 300 300 299 299 298 297 296
299 299 299 299 299 299 299 299 299 299 299 299 299 300 300 300 300 301 301 301 301 302 302 302 302 303 303 304 305 306 307 309 312 315 317 317 317 318 318 318 318 319 319 318 318 318 317 315 315 315 315 315 315 317 318 316 315 314 313 312 310 309 309 308 307 305 304 303 302 301 301 300 300 299 299 299 299 298 298 297 297 296 296 295 295
298 298 298 298 298 298 298 298 298 298 298 298 299 299 299 299 299 300 300 300 300 301 301 301 301 301 302 302 303 305 307 307 308 311 314 316 318 318 318 317 316 317 318 318 318 318 316 315 315 315 315 316 316 317 316 314 313 313 312 310 309 309 309 308 306 304 303 302 301 300 299 299 299 298 298 297 297 296 296 296 296 295 295 294 294
298 298 297 297 297 298 297 298 298 297 297 298 298 298 298 298 298 298 298 298 298 299 299 299 299 300 300 301 302 303 306 308 309 310 311 314 317 317 317 316 316 316 317 318 317 316 315 314 314 315 315 315 316 315 314 313 312 311 310 309 309 308 307 306 304 303 302 301 300 299 298 297 297 297 296 296 296 296 295 295 295 294 294 294 293
297 297 297 297 297 297 297 297 297 297 297 296 296 296 296 296 296 297 297 297 297 297 297 297 298 298 299 299 300 301 302 305 308 311 312 314 315 317 317 315 315 316 316 315 314 315 315 313 313 314 313 312 312 312 311 310 310 309 308 308 307 306 304 303 302 302 301 299 298 297 297 296 296 296 295 295 295 295 295 294 294 294 293 293 293
296 296 297 297 297 297 296 296 296 296 296 296 296 295 295 295 295 295 296 296 296 296 296 296 296 297 297 298 299 299 300 301 303 307 310 312 312 314 315 314 314 315 314 312 312 312 312 311 312 311 310 309 309 309 308 307 307 306 305 304 303 303 302 301 301 300 299 298 297 297 296 296 295 295 295 295 294 294 294 293 293 293 292 292 292
296 296 296 296 296 296 296 296 296 296 296 296 296 295 295 295 295 295 295 295 295 295 295 296 296 296 296 297 297 298 299 299 300 302 306 309 309 309 310 311 312 313 311 310 310 308 306 307 308 307 306 307 307 307 306 305 304 303 302 301 301 301 300 300 300 299 298 297 297 296 295 295 295 294 294 294 294 293 293 293 293 292 292 292 291
295 295 296 296 296 296 296 296 296 296 296 296 296 296 296 296 296 295 295 295 295 295 295 295 295 295 296 296 297 297 298 299 300 300 302 305 307 307 306 307 308 307 305 306 307 305 303 303 304 304 304 305 304 304 304 303 302 301 300 300 300 299 299 298 298 297 297 296 296 295 295 294 294 294 294 293 293 293 293 293 292 292 291 291 291
295 295 296 296 296 296 296 296 296 296 296 296 296 296 296 296 296 296 295 296 296 295 295 295 295 295 296 296 296 297 298 299 300 300 300 303 306 307 306 306 306 304 302 304 308 307 303 302 302 301 300 301 301 300 300 299 299 299 299 299 299 298 298 297 297 296 296 296 295 295 294 294 294 293 293 293 293 293 293 292 292 291 291 291 290
295 295 296 296 296 296 296 296 296 296 296 295 295 295 295 295 295 295 296 295 295 295 295 295 295 295 295 295 296 296 297 298 299 300 301 303 305 307 307 306 305 303 303 305 307 306 302 300 300 299 298 297 297 296 295 296 297 298 298 298 297 297 297 297 296 296 295 295 294 294 293 293 293 293 293 293 293 293 292 292 292 291 291 291 290
296 296 296 296 297 296 296 296 296 295 295 294 294 294 294 294 294 295 295 294 294 294 294 294 294 295 295 295 295 296 297 298 299 299 301 303 305 306 306 306 305 304 305 306 305 302 300 298 297 296 297 298 297 296 296 297 298 298 297 297 297 297 297 296 295 295 295 294 293 293 293 293 293 293 293 293 292 292 292 292 291 291 291 291 291
296 296 296 297 296 296 296 295 295 294 293 293 293 293 294 294 294 294 293 293 293 293 293 294 294 294 294 295 295 295 296 298 299 299 300 302 305 306 306 305 305 305 305 305 302 299 298 297 296 295 297 298 298 297 298 298 298 298 297 297 296 296 296 295 294 294 294 293 293 292 293 293 293 293 292 292 292 292 292 291 291 291 290 290 290
297 297 297 296 296 296 295 295 294 293 293 293 293 293 293 293 293 293 292 291 292 292 293 293 294 294 294 294 294 294 295 297 299 299 299 301 303 305 305 305 305 304 304 303 301 299 297 297 297 297 298 299 299 298 298 298 298 297 297 296 296 295 294 294 293 293 293 293 293 292 293 293 292 292 292 292 292 292 291 291 291 290 290 290 289
297 296 296 296 296 296 295 294 294 294 294 294 294 293 293 293 293 292 292 292 292 293 293 293 293 293 294 294 294 294 295 297 299 299 299 299 301 303 304 304 304 303 302 302 302 300 298 298 299 299 300 300 299 299 299 298 298 297 296 296 295 294 293 293 293 293 293 292 292 292 292 292 292 292 292 292 291 291 291 291 290 290 290 289 289
296 296 296 295 295 295 294 293 294 294 294 294 294 294 294 293 293 293 292 292 292 293 293 293 293 293 293 293 294 295 296 298 298 299 299 299 300 301 303 302 302 301 301 301 302 301 299 299 299 300 300 300 300 299 299 298 297 297 296 295 294 293 293 293 293 293 292 292 292 292 292 292 292 292 291 291 291 291 290 290 290 290 290 290 290
296 295 295 295 294 294 294 294 294 294 294 294 294 294 294 294 293 293 293 293 293 293 293 292 292 293 294 294 295 296 297 298 298 299 299 300 299 300 301 302 302 302 302 301 300 300 300 300 300 301 301 301 301 300 299 298 297 297 296 295 294 293 293 293 292 292 292 292 292 292 292 291 291 291 291 290 290 290 290 289 289 289 289 290 290
295 295 294 294 294 294 294 294 295 295 295 295 295 295 295 294 294 294 294 293 293 293 293 293 293 294 295 296 296 297 297 297 297 298 299 299 299 299 301 302 303 303 302 300 299 300 300 300 300 301 301 301 300 300 299 298 297 296 295 295 294 293 293 292 292 292 292 292 292 292 291 291 291 290 290 289 289 289 289 289 289 289 290 290 290
295 295 294 294 294 294 294 295 295 295 295 295 295 295 295 295 295 295 294 294 294 293 293 293 293 294 295 295 296 296 296 296 297 298 299 299 299 299 300 302 303 302 301 299 299 300 300 299 299 299 300 299 299 299 298 297 296 295 295 294 293 292 292 292 292 292 292 292 292 291 291 290 290 289 289 289 288 289 289 289 289 290 290 290 290
295 295 294 294 294 294 295 295 295 295 296 295 295 295 295 295 295 295 294 294 293 293 292 293 294 294 294 294 294 295 295 296 297 297 298 298 298 298 299 300 300 300 299 298 298 299 299 298 298 299 299 298 297 296 296 295 295 294 294 293 292 292 292 292 292 292 292 292 291 291 290 289 289 289 289 288 288 289 289 289 290 290 290 290 290
295 294 294 294 294 295 295 295 295 295 295 295 294 294 295 295 295 294 293 293 293 292 292 293 293 294 293 294 294 294 295 296 296 296 296 296 297 297 298 299 299 299 298 298 297 298 298 297 297 297 297 297 295 295 294 294 294 293 292 292 291 291 291 291 292 292 291 291 291 290 289 289 289 289 289 288 289 289 290 290 290 290 290 290 290
295 294 294 294 294 295 295 296 295 295 294 294 294 294 295 294 294 293 292 292 292 292 292 293 293 294 294 293 293 293 294 294 294 294 294 295 296 297 297 298 298 298 297 297 297 297 297 297 296 296 296 295 294 294 294 294 293 293 292 291 291 291 291 291 291 291 291 291 290 289 289 289 289 289 289 289 289 290 290 290 290 290 290 290 290
295 294 294 294 295 295 295 296 295 294 294 294 294 294 294 294 293 293 293 293 293 293 292 292 293 293 293 293 293 293 294 294 294 293 293 294 295 295 296 296 296 296 297 297 296 296 296 295 295 295 295 294 294 293 293 293 293 292 292 291 291 291 291 291 291 291 290 290 289 289 289 289 288 288 289 289 289 290 289 289 290 290 290 290 290
294 294 294 294 294 294 295 295 295 294 294 293 294 294 294 293 293 293 294 293 293 293 293 292 292 292 292 293 293 294 294 294 294 293 293 293 293 293 293 294 294 295 295 296 296 296 295 294 293 293 293 293 293 293 293 293 293 292 292 291 291 291 291 291 290 290 289 289 289 289 289 288 288 289 289 289 289 289 289 289 290 290 290 290 290
294 294 294 294 294 294 294 294 294 294 293 293 293 294 294 293 294 294 294 293 293 293 293 293 292 292 292 293 294 294 294 293 293 293 293 292 291 291 291 290 291 292 293 293 294 294 294 293 292 292 292 292 292 292 292 292 291 291 291 291 291 290 290 289 289 289 288 288 289 289 288 288 289 289 289 289 289 289 289 290 290 290 290 291 291
294 294 294 294 294 294 294 294 294 293 293 293 293 293 293 293 293 293 293 293 293 293 293 293 292 292 292 293 293 294 293 293 293 292 292 291 291 291 290 290 290 290 290 291 291 292 292 293 293 292 291 291 290 290 290 290 290 289 289 289 288 288 288 288 288 288 288 288 288 288 288 288 289 289 289 289 289 289 290 290 290 290 290 291 291
294 294 294 294 294 293 293 293 293 293 293 293 293 293 293 293 293 293 293 293 293 293 293 292 292 292 292 292 292 292 292 292 292 291 291 291 291 292 292 292 292 291 291 292 292 293 293 293 293 292 291 290 290 289 289 289 289 288 288 287 287 287 287 288 288 288 288 288 288 288 288 289 289 289 288 288 289 289 290 290 290 290 291 291 290
294 293 293 293 293 293 293 293 293 293 292 292 292 292 293 293 293 293 293 293 293 293 293 292 292 292 292 292 291 291 291 291 291 291 291 291 292 292 292 293 293 293 293 293 293 293 293 292 291 291 290 290 289 289 288 288 288 288 288 287 286 287 288 288 288 288 288 288 288 288 289 289 288 288 288 288 288 289 289 290 290 290 291 291 290
294 293 293 293 293 293 293 293 293 293 292 292 292 292 292 293 292 292 293 293 293 292 292 292 292 292 292 292 292 292 292 292 292 292 292 292 292 292 292 292 292 292 292 292 292 291 291 290 289 289 289 288 288 288 288 288 289 289 288 287 287 287 288 288 288 288 288 288 288 289 289 289 288 289 289 289 289 289 289 289 290 290 290 290 290
295 294 293 293 293 293 293 293 293 292 292 292 292 292 292 292 292 292 292 292 292 292 292 292 292 292 292 292 292 292 292 292 292 292 292 292 292 292 292 292 291 291 291 290 290 290 289 289 289 288 288 288 288 288 288 289 289 289 288 287 287 287 288 288 288 288 288 288 288 289 289 289 289 289 289 289 289 289 289 289 289 290 289 289 290
295 294 293 293 293 293 293 293 292 292 292 292 291 292 292 292 292 292 292 292 292 292 292 292 291 291 291 292 292 292 292 292 292 292 291 291 291 292 292 291 291 290 290 289 289 289 289 289 288 288 288 288 288 288 289 289 289 288 287 287 286 287 288 288 288 288 288 288 289 289 289 289 289 288 288 289 289 289 289 289 289 289 289 289 289
295 294 294 293 293 293 293 292 292 292 292 291 291 292 292 292 292 292 292 292 292 292 292 292 292 291 291 291 291 292 291 291 291 291 291 290 290 290 290 290 290 289 289 289 289 288 288 288 287 287 287 288 288 289 289 289 288 287 287 286 286 287 288 288 288 288 288 289 289 289 288 288 287 287 287 288 288 288 288 289 289 289 289 289 289
Wind_Speed
19 21 25 28 27 24 22 21 21 20 18 18 18 19 21 22 20 19 18 17 18 18 17 17 17 16 16 15 14 15 16 17 17 16 17 17 17 17 16 15 15 14 13 12 11 12 14 14 14 13 13 13 13 11 10 9 9 13 22 27 28 25 22 19 14 12 13 14 13 13 13 11 8 6 6 7 7 6 5 5 4 4 5 6 7
18 21 25 25 23 23 21 20 20 20 20 18 18 21 23 22 20 19 18 18 19 17 16 17 17 16 16 16 15 15 16 17 16 16 17 17 16 15 14 14 13 13 12 12 10 10 10 11 12 10 10 11 12 11 11 10 10 13 21 26 27 24 19 17 17 15 13 14 16 15 14 12 9 8 7 6 5 5 4 3 3 2 2 4 4
9 10 15 18 21 23 22 21 21 22 21 19 20 22 23 22 20 19 18 19 18 16 15 17 17 16 17 17 16 16 16 15 15 16 16 15 15 15 14 13 12 12 11 11 10 9 8 8 9 9 8 9 12 13 12 12 12 16 22 24 23 21 18 16 16 17 15 15 17 17 15 14 11 8 8 7 5 5 5 3 3 4 3 3 4
15 15 16 17 18 21 22 22 24 23 20 19 20 21 22 21 20 18 17 18 18 16 14 15 16 17 19 18 17 16 15 14 15 15 14 13 15 16 15 13 12 11 10 10 9 7 7 7 7 8 7 8 10 12 12 13 14 17 19 20 19 18 18 17 16 18 18 16 16 17 15 14 12 9 10 9 7 7 7 5 6 8 7 4 5
13 11 14 16 17 18 18 19 21 21 19 18 18 19 20 19 18 17 16 17 17 16 15 15 16 18 19 18 17 16 15 15 15 15 13 12 15 16 14 13 12 10 10 9 7 6 6 6 6 6 6 7 8 8 11 14 15 16 17 17 16 16 17 18 16 18 20 18 16 16 14 13 13 11 11 10 9 9 9 9 9 10 7 4 5
15 14 15 19 21 21 19 18 17 17 18 18 17 17 18 17 16 15 15 16 17 18 17 16 17 18 18 17 17 17 16 15 14 14 14 13 13 14 13 12 11 11 11 11 9 7 7 6 6 6 7 8 7 7 8 11 14 15 15 15 15 16 17 16 15 17 19 18 16 15 14 14 14 13 11 10 12 13 14 12 10 8 6 4 4
14 14 16 19 22 23 23 20 17 15 15 17 18 18 18 16 14 15 15 15 16 17 18 17 17 18 18 18 17 17 17 16 13 14 16 14 12 12 13 13 12 12 13 13 12 10 9 9 8 7 7 9 9 8 8 9 12 14 14 14 15 15 14 14 15 16 18 18 16 14 13 13 14 13 11 11 12 13 12 11 8 5 2 2 2
11 12 14 18 20 21 21 19 19 16 15 17 19 18 17 16 14 16 15 14 15 16 16 17 17 17 18 19 18 17 17 17 16 15 16 16 14 14 14 14 13 13 14 14 14 12 10 11 11 10 10 10 9 9 9 10 12 14 14 14 14 14 13 12 13 16 17 17 16 13 12 12 12 13 13 13 13 11 9 7 5 2 1 2 3
10 10 12 15 18 20 19 19 20 17 15 16 17 16 16 15 15 16 14 13 14 14 14 17 19 17 17 19 19 19 19 19 18 17 18 17 17 16 16 16 15 14 13 13 14 13 11 11 12 12 12 12 11 10 10 11 13 14 13 13 12 11 12 12 12 14 15 15 15 13 11 11 13 15 15 13 11 9 7 5 3 1 2 3 4
11 12 12 12 15 16 17 18 18 16 14 15 16 15 13 12 12 12 12 11 11 11 12 17 19 16 15 17 18 19 21 21 20 19 19 19 19 18 17 17 17 16 15 14 14 14 14 13 13 14 14 14 14 13 12 12 13 13 13 13 12 10 9 11 12 12 13 14 14 13 12 13 13 14 13 10 8 8 6 4 2 2 5 7 9
12 11 9 8 9 9 11 12 12 12 13 13 14 14 11 9 8 7 7 8 9 9 11 14 16 15 14 14 14 15 18 20 20 19 20 20 20 19 19 18 18 17 16 16 16 15 15 15 15 16 16 17 17 17 16 15 14 13 13 15 16 13 11 11 13 14 14 13 14 14 15 15 13 12 12 10 8 7 4 1 1 5 7 8 9
17 13 10 6 6 6 6 6 6 7 8 9 10 11 10 9 7 5 4 5 7 8 8 9 11 11 12 12 11 12 13 16 18 18 18 19 20 19 19 19 19 19 18 18 18 17 17 18 18 18 18 18 18 19 18 16 15 14 13 14 14 13 13 14 15 15 15 15 15 15 16 16 15 13 12 11 8 5 2 1 4 6 6 6 6
27 25 21 15 10 8 6 5 5 5 5 6 7 9 10 10 8 6 4 2 3 5 6 7 8 9 10 10 11 11 12 14 15 16 17 18 18 19 20 20 20 20 20 19 19 19 19 20 21 21 20 19 20 21 21 19 17 15 14 13 13 13 13 13 13 13 13 14 15 15 15 14 14 12 11 9 6 3 0 3 5 5 6 6 7
32 32 30 27 22 18 14 11 8 7 5 4 4 4 6 8 7 5 5 5 5 6 7 8 9 9 10 11 12 12 13 13 14 15 16 17 18 19 19 20 20 20 20 19 19 19 20 21 22 22 22 21 22 23 23 22 20 18 16 15 14 14 13 12 11 10 10 11 11 11 12 11 10 10 9 7 4 1 2 3 4 6 6 6 6
31 32 31 30 28 26 24 22 19 16 13 10 8 5 3 2 3 3 5 7 9 10 11 10 8 9 10 11 13 14 14 15 15 15 16 16 17 18 19 20 20 21 20 20 20 20 21 22 22 22 22 23 24 24 25 25 23 20 18 16 16 15 14 12 11 10 8 8 7 7 9 9 8 7 6 3 1 2 3 4 6 6 4 3 2
30 30 29 29 28 27 26 25 24 22 20 19 18 15 12 9 7 5 6 8 10 12 14 13 10 9 9 10 12 14 14 15 16 17 16 16 16 18 19 20 20 21 22 21 21 22 22 23 23 22 22 22 23 25 26 25 22 20 18 18 17 16 15 13 11 10 8 7 6 6 8 8 6 4 2 1 2 3 4 5 5 3 1 1 1
29 28 27 27 26 25 24 23 23 22 20 20 20 19 16 14 12 10 7 7 8 9 11 12 11 11 10 10 10 12 13 14 15 16 16 16 17 17 18 20 21 22 23 22 22 23 23 23 22 21 21 21 22 24 26 25 22 20 19 18 17 16 15 13 12 10 8 7 7 7 8 7 4 1 0 1 3 3 3 3 2 2 1 1 1
27 26 26 24 24 24 23 21 21 21 21 20 19 18 16 14 13 12 10 10 11 11 12 12 12 12 13 13 12 12 13 14 15 17 17 17 17 17 18 19 21 22 23 23 23 23 23 22 21 21 21 20 21 22 24 24 23 20 18 18 18 17 16 15 13 12 11 10 9 9 7 5 3 1 1 2 2 2 2 2 2 3 3 1 1
25 24 23 21 21 21 21 21 21 21 21 20 19 18 17 15 14 13 13 14 14 14 15 15 14 13 13 14 15 15 16 15 15 16 17 18 18 19 19 20 21 22 22 22 23 23 22 21 20 20 20 19 20 22 23 23 21 19 18 19 20 19 18 16 14 13 13 12 10 8 6 4 4 3 3 3 2 2 3 3 4 4 4 2 2
22 21 20 19 19 19 19 20 20 20 20 19 18 18 17 17 16 16 16 16 16 16 16 17 17 16 15 15 16 17 19 20 18 17 17 18 19 20 20 22 23 23 22 23 24 23 22 20 19 19 20 19 19 21 22 21 19 19 20 20 19 19 18 15 13 13 13 12 9 7 6 5 5 4 4 3 3 3 4 3 3 3 2 2 3
19 18 18 18 18 18 18 18 18 18 18 18 17 17 17 17 17 17 17 17 17 17 17 17 18 17 17 17 17 17 18 19 21 22 20 19 20 20 21 23 24 24 23 23 23 23 21 21 20 19 19 19 20 21 21 19 19 21 20 17 15 16 17 16 14 13 12 11 9 8 6 5 4 3 2 2 1 1 1 2 2 0 1 2 3
17 17 17 17 17 16 16 15 15 15 15 15 15 14 15 15 15 16 16 17 17 17 17 17 17 17 16 16 16 16 17 17 19 22 23 23 22 21 22 23 23 23 23 23 24 23 22 21 21 20 19 19 19 20 20 21 21 20 18 15 14 15 16 16 15 14 12 11 10 8 6 5 4 4 4 5 5 5 5 5 3 1 1 2 3
15 15 15 15 15 15 14 13 13 13 13 13 12 12 12 12 12 14 15 15 15 15 16 17 18 19 18 16 16 16 15 15 16 19 22 25 25 23 23 23 22 22 23 23 24 24 23 22 22 20 18 18 20 21 22 22 21 20 18 17 15 15 16 16 16 14 12 11 9 8 7 7 7 8 8 8 7 6 5 4 3 2 1 2 4
13 14 14 14 13 13 12 12 12 13 13 12 12 12 13 13 13 13 14 15 15 16 17 18 19 21 21 19 18 17 15 13 13 16 21 25 26 24 23 23 22 22 23 24 24 24 24 25 24 21 19 20 22 23 22 20 18 17 17 17 16 16 17 17 15 14 13 11 11 10 10 10 9 10 9 8 6 5 4 3 2 1 3 4 5
11 12 13 13 12 12 12 12 13 13 13 14 14 14 15 15 14 14 15 16 16 17 18 19 20 20 21 21 20 17 16 15 13 15 19 22 24 24 23 24 23 22 23 23 23 25 26 26 25 23 22 22 22 21 19 17 17 17 17 18 18 17 16 15 14 14 14 13 13 14 12 10 9 9 8 7 6 4 3 1 1 3 5 6 7
10 11 12 12 12 13 14 14 14 14 14 14 15 15 15 15 15 15 15 16 17 18 18 18 20 21 21 21 21 19 16 14 15 15 16 17 19 20 20 20 20 22 24 23 24 26 27 28 27 24 23 21 21 21 21 20 20 19 18 17 16 14 14 14 15 15 15 15 15 13 12 9 8 7 6 5 4 3 2 3 5 7 8 10 12
11 11 11 12 13 14 15 15 14 15 15 15 15 15 15 15 15 15 16 16 17 18 18 18 19 21 21 21 22 21 18 14 13 14 15 16 15 14 15 16 16 17 17 18 21 24 24 26 26 24 22 21 21 21 22 22 21 19 16 15 14 14 14 14 13 14 14 14 13 11 10 8 6 5 4 2 3 4 5 7 9 10 11 12 13
12 12 11 12 13 13 14 15 15 16 16 15 15 15 15 15 15 15 15 15 16 17 18 18 18 19 19 20 21 22 21 17 13 12 15 18 17 14 14 16 18 18 16 15 15 17 17 19 22 23 23 23 23 22 22 21 20 18 17 16 15 15 14 13 12 12 12 12 11 9 8 6 4 3 2 3 5 6 8 10 11 11 11 12 13
13 12 12 13 14 14 15 16 16 16 16 16 16 15 15 15 15 15 14 13 14 16 17 17 17 17 17 18 19 21 22 20 15 12 12 16 18 17 15 15 18 19 18 14 12 15 18 21 23 23 20 18 18 19 19 20 21 20 19 17 16 15 13 12 12 12 11 10 8 6 5 3 2 1 2 4 6 7 9 10 11 11 11 12 13
12 12 12 13 13 14 15 16 16 16 17 18 18 18 17 15 15 15 14 14 14 15 16 16 17 17 17 17 16 17 20 21 18 15 13 13 16 18 18 16 16 15 14 14 14 17 23 24 23 21 18 17 17 17 17 20 22 21 19 18 16 14 13 11 11 12 10 8 5 4 3 2 1 1 3 5 6 7 8 9 9 9 10 12 13
11 11 11 11 11 12 13 14 16 17 17 17 18 18 18 17 16 15 14 15 17 17 18 17 16 16 16 17 17 17 17 17 16 15 14 12 14 17 18 16 16 15 15 16 19 22 25 24 21 20 21 22 23 22 21 20 21 22 20 18 15 14 12 12 11 10 8 6 5 5 3 2 3 3 4 5 6 6 6 7 7 7 9 11 11
11 11 10 10 11 12 13 15 17 18 18 17 16 17 18 18 18 16 15 17 18 18 16 15 14 14 14 16 18 18 18 16 15 14 14 12 14 17 18 17 16 16 16 18 21 24 26 26 25 24 24 24 24 24 23 22 21 21 20 18 16 14 12 12 11 9 8 7 6 5 3 3 3 4 4 5 5 5 5 5 6 6 7 9 11
9 10 10 10 11 13 15 16 17 17 17 17 16 17 18 18 18 19 20 21 19 16 14 14 14 14 16 17 19 18 17 16 14 13 13 13 14 17 19 19 17 17 19 20 22 25 27 28 28 27 26 25 24 23 23 23 21 20 18 16 15 14 13 12 12 10 8 7 5 4 3 3 3 2 3 3 3 4 4 4 4 5 7 10 12
7 8 8 8 10 12 13 13 15 16 17 17 17 17 17 17 17 18 21 22 22 21 19 17 17 18 19 20 18 16 15 14 13 12 12 13 13 15 19 20 18 19 21 22 23 27 30 30 30 30 29 27 26 26 25 23 21 19 17 15 15 15 14 13 11 9 7 6 5 5 4 3 2 2 2 2 2 3 3 3 3 5 7 10 12
7 7 7 8 10 10 9 10 14 17 19 19 20 19 18 18 17 16 17 19 21 23 24 23 22 21 20 18 16 13 12 13 12 12 12 11 11 13 18 21 21 22 24 24 24 27 30 31 31 31 29 26 26 26 24 23 22 20 18 18 18 18 16 14 11 8 7 7 7 7 5 3 2 2 2 2 2 2 2 2 3 5 7 9 11
9 8 8 10 9 8 9 11 15 18 19 19 19 18 17 17 17 17 18 19 19 22 24 26 25 22 17 14 12 11 11 12 12 11 11 12 12 12 18 24 25 26 27 26 24 24 26 28 29 29 26 25 25 23 21 22 22 20 19 20 20 18 16 14 12 11 10 9 8 7 5 3 3 3 3 2 2 1 2 3 4 5 7 9 11
10 8 9 10 8 8 11 14 16 17 17 17 17 17 16 17 18 18 19 20 20 21 22 23 24 22 18 13 10 9 10 13 13 12 11 11 11 12 18 25 28 28 29 28 24 22 22 24 25 24 23 24 24 23 21 22 21 20 20 21 20 17 15 14 13 12 11 10 8 6 3 2 3 3 3 3 3 2 2 4 4 6 8 11 11
8 7 8 9 8 10 13 15 15 15 15 15 17 17 16 17 17 17 18 19 19 20 20 19 19 19 18 15 11 9 11 13 13 12 9 8 8 11 18 24 27 27 27 26 24 22 20 19 19 21 23 25 25 23 22 22 21 21 21 21 19 17 16 16 14 12 10 9 7 4 2 2 2 3 4 4 3 3 3 4 5 7 9 10 11
7 6 7 8 9 10 13 14 14 15 14 15 16 17 16 16 16 16 17 17 17 17 17 15 14 14 14 12 10 10 10 11 11 9 7 4 4 10 17 21 23 23 23 22 22 20 18 17 18 20 22 21 21 22 23 23 22 22 22 21 20 19 18 16 13 11 9 7 6 3 1 1 2 3 5 5 4 3 4 6 7 7 8 10 11
5 5 6 7 8 10 11 12 13 14 15 15 16 16 15 15 15 15 15 14 14 14 14 12 12 12 11 10 9 8 8 9 9 6 4 4 2 8 12 13 16 17 17 17 18 18 18 18 19 20 21 21 21 23 24 24 23 23 22 21 21 19 17 15 12 11 9 7 5 3 3 3 3 4 5 5 3 3 5 6 7 8 9 10 12
5 5 4 4 7 9 10 10 11 13 14 15 16 15 14 14 15 15 13 12 12 14 14 11 10 9 9 8 8 6 6 7 7 5 5 6 5 6 7 8 10 13 14 15 17 17 18 19 21 23 24 24 24 24 23 22 22 22 21 19 19 18 17 14 12 10 8 6 5 4 4 4 4 5 5 4 2 4 4 4 6 9 10 12 13
5 5 2 4 6 7 8 8 8 10 11 13 14 13 12 12 12 13 12 12 12 13 11 10 9 9 8 8 7 7 10 12 10 9 9 10 10 10 10 9 10 13 16 17 17 16 19 23 27 27 27 26 25 24 23 22 21 20 18 18 18 18 16 14 11 8 7 5 5 5 5 5 5 6 5 2 4 4 2 4 8 11 12 13 13
5 3 2 4 5 6 6 6 6 8 11 12 12 11 10 10 11 12 12 12 12 11 10 9 9 9 10 10 10 12 16 17 17 17 16 15 14 14 12 11 12 14 17 17 17 19 23 27 28 28 28 28 26 24 22 20 19 18 18 18 17 16 14 11 9 7 6 5 5 5 5 6 8 7 4 2 3 2 2 7 11 12 12 12 12
5 4 5 5 5 6 6 6 5 7 10 10 9 8 9 9 10 11 12 12 13 13 12 12 12 12 14 15 16 18 20 21 21 22 22 22 22 21 20 20 20 21 22 22 23 25 28 29 29 28 26 25 23 22 20 19 17 16 15 14 13 12 10 9 8 7 6 5 5 5 7 9 9 6 4 3 2 1 5 9 12 12 11 10 9
4 5 6 6 6 6 6 6 5 6 7 8 7 8 8 9 10 11 12 13 14 15 15 16 16 16 17 17 17 18 20 21 22 23 24 25 26 26 26 27 28 30 31 32 32 32 32 31 29 27 25 22 21 20 18 16 14 12 10 9 9 9 9 9 8 7 5 4 4 6 9 10 8 5 3 3 1 4 8 11 12 11 10 8 9
4 5 6 6 6 7 7 6 6 6 7 8 8 8 8 9 10 11 12 13 14 16 17 18 18 19 19 20 19 19 19 19 21 22 23 24 25 25 24 24 25 27 28 28 27 27 26 25 23 23 22 20 18 16 15 14 13 12 10 9 8 9 10 9 8 6 5 4 4 8 10 9 6 4 3 2 1 4 8 10 11 10 8 7 8
4 6 6 6 6 7 7 6 6 7 8 8 8 7 8 8 9 11 13 14 14 15 17 18 19 20 20 21 22 22 22 21 22 23 23 23 23 22 20 19 19 20 20 20 20 19 19 19 19 18 18 16 15 15 14 14 13 12 11 10 9 9 10 9 7 6 6 5 7 9 9 7 6 5 3 1 2 4 8 10 11 10 8 7 8
4 6 7 6 6 6 5 5 6 6 8 9 8 7 7 8 9 11 13 13 14 16 17 17 18 18 19 20 21 21 22 22 22 21 20 20 20 19 19 19 19 19 19 18 17 17 17 17 17 16 16 16 15 14 14 13 12 12 11 10 9 9 10 9 8 7 7 7 7 8 8 6 5 3 2 1 1 4 7 9 11 12 9 8 9
6 7 7 7 7 7 5 4 4 5 7 9 9 8 8 8 9 10 12 13 14 15 16 17 17 17 17 18 19 19 20 20 20 19 18 18 17 17 17 18 18 18 18 18 17 16 16 16 15 15 14 14 13 12 11 11 10 10 9 9 9 10 10 9 9 9 8 8 8 7 7 5 4 1 2 2 1 2 4 5 8 11 9 8 10
7 8 8 7 6 6 5 4 4 4 5 7 8 8 8 9 9 10 11 12 14 14 15 15 16 17 17 17 18 18 18 18 17 17 16 16 15 15 15 16 16 17 17 17 16 15 14 14 13 12 11 11 10 10 9 9 9 10 10 9 10 10 10 10 10 10 9 9 8 7 5 3 2 2 2 2 2 3 2 3 7 10 9 7 9
10 10 9 7 7 7 6 4 4 4 4 4 5 6 6 8 9 10 11 11 12 13 14 14 14 15 15 16 16 16 16 16 15 15 14 14 14 14 14 15 15 15 14 14 13 12 12 11 10 9 8 8 8 8 9 9 10 10 10 10 10 10 11 11 11 10 9 7 6 4 3 3 4 4 4 4 3 3 4 4 6 8 7 7 8
Wind_Direction
178 179 181 178 171 162 157 156 155 159 166 170 172 169 167 169 168 164 163 165 167 169 172 174 171 169 165 162 160 158 158 158 156 154 148 141 140 139 138 137 133 133 135 133 132 132 132 133 129 126 126 126 132 138 144 151 159 182 191 188 185 184 179 167 151 156 181 190 180 173 172 170 169 171 161 150 156 163 160 166 158 115 82 67 63
181 182 179 172 161 155 153 154 155 161 168 170 169 169 169 169 166 163 164 167 170 173 175 174 170 168 166 165 166 164 161 160 159 157 151 147 146 147 148 144 139 139 143 146 148 145 139 133 126 128 132 131 138 145 149 154 159 172 183 183 180 180 183 176 160 154 169 184 184 180 181 184 184 184 184 170 162 178 184 189 197 172 96 66 64
129 145 148 141 142 148 148 151 158 165 172 173 171 169 169 168 166 164 165 169 173 174 171 170 169 170 170 170 171 170 167 167 167 165 163 160 158 158 157 155 149 149 153 156 158 161 161 149 129 127 136 139 144 150 151 155 159 163 170 176 177 179 187 188 173 162 163 173 185 187 187 192 197 199 196 189 191 208 208 213 220 195 158 100 79
90 82 95 109 129 142 144 151 161 167 173 176 173 170 168 168 167 165 166 170 174 173 172 173 173 172 173 174 176 177 175 175 174 175 177 177 173 165 160 161 164 167 170 166 164 170 178 174 151 137 142 147 149 154 156 158 163 164 165 171 176 180 187 190 184 174 166 167 180 188 192 198 203 210 209 203 210 223 216 200 177 162 147 116 84
129 115 117 130 139 142 146 155 159 163 171 175 172 169 168 168 169 168 168 171 174 175 177 179 177 175 176 179 181 181 180 179 181 184 183 178 177 172 166 169 175 180 185 180 169 168 172 173 171 165 166 165 161 162 162 162 165 169 171 174 179 183 185 188 190 184 175 172 176 183 195 204 206 214 220 205 183 175 171 163 156 149 137 110 92
149 137 131 140 147 151 157 161 160 164 173 173 171 173 171 171 173 173 173 174 177 181 184 186 188 185 184 185 183 181 182 183 187 191 186 175 175 178 176 176 177 180 188 188 180 175 170 171 181 188 195 196 189 183 178 172 169 170 174 179 183 187 187 187 188 185 182 182 179 179 188 200 206 211 212 196 174 160 153 148 144 141 128 107 103
149 141 131 137 149 156 158 164 174 179 176 171 170 173 174 175 180 180 181 184 186 189 192 194 197 199 197 193 186 184 187 190 191 190 188 184 183 185 184 182 179 177 182 186 186 187 184 186 195 204 212 214 206 200 199 191 178 170 167 169 176 180 183 187 190 190 190 188 185 184 185 190 201 202 193 187 181 170 162 158 153 147 123 70 73
143 146 139 139 151 158 160 172 186 186 179 172 169 171 175 179 183 183 187 195 198 200 204 202 201 206 209 205 198 193 194 197 197 192 189 190 192 192 190 191 190 183 181 184 188 194 196 193 199 210 218 222 219 210 209 205 194 181 168 162 165 167 166 172 183 191 194 192 190 192 187 182 184 182 178 182 184 179 180 187 186 178 352 359 358
125 133 135 140 153 161 169 182 188 184 180 175 169 169 176 181 187 191 196 203 205 208 211 207 205 209 215 214 209 204 203 204 203 199 196 195 196 197 196 199 202 198 193 194 198 205 208 204 206 214 219 222 225 222 216 209 204 197 187 178 175 172 168 167 169 175 183 188 192 192 181 171 168 166 167 174 178 177 180 187 184 164 341 334 341
123 129 131 142 155 164 173 180 181 179 178 175 174 174 174 176 184 195 205 212 214 214 211 206 207 213 216 216 215 213 212 212 209 205 204 202 201 201 202 203 206 207 205 206 209 211 213 214 218 223 225 226 228 231 228 220 215 213 211 209 209 206 196 186 180 178 177 180 187 187 170 158 164 168 168 168 167 166 171 178 184 332 334 332 335
112 119 120 130 143 156 170 174 176 179 177 173 176 180 179 173 169 183 202 207 206 203 199 201 207 215 220 220 220 219 217 216 213 210 208 206 204 205 207 208 208 210 212 215 218 218 218 220 223 225 228 229 229 232 235 232 229 227 224 222 225 230 228 212 196 188 182 174 177 183 173 158 159 168 166 163 163 166 169 171 345 346 346 341 331
82 85 86 93 108 121 139 150 159 176 182 183 188 193 194 186 174 174 190 198 199 197 196 200 207 214 220 221 218 215 212 210 210 209 208 208 209 211 214 216 217 219 223 225 228 231 233 233 231 228 229 230 230 231 231 231 232 232 229 225 223 225 227 222 209 198 190 177 168 173 173 163 158 161 162 162 163 160 150 8 349 343 345 339 326
69 66 65 68 74 81 88 106 121 130 150 173 188 199 204 202 196 194 195 212 232 231 229 227 226 229 229 227 225 221 215 212 213 216 218 219 222 224 225 228 232 234 235 234 235 238 241 241 239 235 233 234 233 230 227 225 223 224 224 223 220 217 217 220 216 209 204 192 178 173 176 173 170 170 172 173 171 168 300 334 335 332 333 335 339
63 60 61 62 64 66 67 74 84 84 93 121 147 181 203 209 210 218 240 260 279 290 282 264 252 252 249 245 244 240 235 231 227 227 230 230 231 233 235 237 240 242 241 238 238 242 243 242 242 241 238 236 234 229 224 220 216 215 217 217 217 216 214 212 210 206 205 204 195 184 182 185 187 183 180 181 184 202 317 323 323 321 324 334 346
58 58 58 57 58 59 60 63 63 60 60 61 55 44 15 297 267 267 278 279 280 283 283 279 270 266 266 263 257 254 249 245 242 241 241 239 238 239 239 240 242 243 242 241 242 246 248 249 250 247 242 238 235 230 223 217 213 211 212 213 213 211 209 208 206 204 205 212 216 205 190 187 187 184 181 187 224 323 328 319 314 312 314 336 352
51 52 51 50 50 51 53 55 53 51 53 53 50 47 40 24 7 347 311 290 278 268 267 273 278 276 274 271 268 266 260 253 250 248 246 244 243 241 241 242 243 244 244 244 246 249 251 253 253 250 244 239 235 229 222 216 211 209 210 211 209 207 206 206 206 208 214 217 218 210 192 182 180 184 191 265 308 313 307 304 301 288 269 339 334
45 43 42 42 42 42 43 46 44 42 43 43 41 40 41 36 27 18 356 324 311 302 296 295 291 283 273 267 269 274 273 266 259 253 248 245 244 243 244 244 244 246 246 245 247 250 250 250 248 245 241 237 232 226 220 215 210 207 207 205 202 201 201 201 201 197 195 193 185 177 173 170 171 177 249 294 295 288 285 292 270 227 238 325 327
41 39 36 34 34 35 35 36 35 33 32 30 27 24 25 25 19 14 5 349 339 336 334 327 314 299 288 279 273 273 277 276 269 259 251 246 246 248 248 247 245 244 244 244 245 246 245 244 242 239 236 233 228 221 218 215 209 203 203 202 198 197 196 193 189 182 176 175 171 166 166 162 153 162 210 234 247 257 286 308 248 235 255 278 317
43 41 38 33 31 31 31 30 30 28 24 21 17 13 11 8 2 358 354 347 339 333 332 331 327 322 313 302 291 281 277 276 272 265 256 250 250 253 252 250 246 243 242 242 244 244 243 242 239 235 232 228 222 217 215 213 209 205 206 202 196 195 193 189 184 179 176 176 173 168 165 158 159 176 191 201 226 274 298 292 260 249 250 246 323
46 45 41 36 31 28 26 26 25 24 19 14 11 7 3 359 354 350 347 344 339 333 331 330 326 322 319 316 308 297 287 277 270 267 263 256 252 252 251 250 249 247 245 242 242 241 239 237 233 230 228 223 216 212 209 208 209 208 204 202 201 197 189 181 180 180 179 176 170 164 163 163 174 190 201 221 255 277 278 266 256 261 267 282 318
43 42 40 37 33 28 26 24 20 18 13 7 3 0 358 355 353 349 344 341 338 334 333 333 330 324 320 319 316 310 303 291 276 267 266 264 259 253 251 251 250 248 245 241 240 237 234 232 231 229 227 220 213 209 204 201 206 208 206 207 208 196 182 175 174 173 172 167 158 157 163 168 178 197 213 227 233 198 135 135 138 178 292 303 311
38 38 37 36 34 30 27 24 20 17 12 8 6 2 356 353 351 348 345 342 341 340 338 338 337 334 331 329 325 316 309 305 294 277 266 262 260 256 255 257 255 249 241 236 234 232 228 229 230 229 225 217 208 204 199 195 199 205 206 203 198 187 177 174 170 164 160 157 153 155 159 156 150 140 129 123 121 116 112 116 127 164 273 322 330
32 32 32 33 33 31 30 28 27 24 18 16 17 14 8 3 359 357 354 350 348 348 346 344 344 342 339 338 341 333 315 305 303 292 276 264 257 254 256 257 254 247 240 234 231 229 225 223 223 220 216 208 201 197 195 195 198 202 201 195 189 181 173 168 164 159 155 154 153 148 142 139 136 130 126 126 127 129 135 145 161 194 279 329 331
26 28 29 30 31 33 34 33 31 28 21 17 16 13 10 6 3 3 2 360 358 355 352 350 349 348 345 340 342 347 340 323 306 295 286 274 262 256 254 252 246 240 237 235 232 228 223 218 215 210 201 196 194 194 194 195 195 193 189 183 176 169 165 162 161 160 158 155 149 136 128 128 128 127 128 130 134 141 152 163 185 261 310 323 327
27 33 34 35 35 35 32 27 22 19 15 12 9 6 3 359 358 359 357 357 357 355 354 353 350 350 349 345 341 343 347 342 323 297 284 275 266 259 254 252 244 233 229 230 231 230 225 215 205 198 191 188 186 183 180 180 178 174 169 166 163 161 162 162 163 163 158 151 143 133 126 122 117 118 124 129 133 140 139 120 341 332 332 330 329
34 37 37 37 34 28 21 18 15 12 10 8 4 2 2 360 359 358 356 353 352 350 349 349 348 346 345 345 342 337 336 340 335 317 297 283 274 264 257 256 249 234 227 226 224 222 214 204 196 191 183 179 177 172 166 163 162 160 159 160 161 163 166 168 167 161 151 144 139 132 125 121 118 118 123 123 118 103 57 11 348 343 342 336 333
36 35 33 29 24 18 14 11 8 4 2 2 360 358 358 357 355 354 353 350 348 347 344 342 341 341 339 338 338 334 330 327 328 326 316 301 289 276 269 269 260 246 244 241 226 210 196 188 189 187 178 173 174 171 164 160 159 156 154 156 158 158 160 162 162 156 147 142 137 129 125 125 124 123 117 84 42 27 9 351 344 345 345 342 341
32 30 27 20 15 11 6 2 360 358 357 357 356 354 353 352 348 346 345 343 341 340 338 335 335 335 333 331 331 330 328 322 315 319 318 306 295 281 268 260 254 257 272 271 239 210 191 180 175 170 169 172 172 166 161 159 157 152 150 151 153 152 152 153 153 148 145 142 136 130 127 126 122 114 73 15 5 359 347 340 342 345 347 347 348
21 21 16 11 7 2 358 357 356 357 355 353 351 349 347 346 343 337 334 333 332 331 329 327 329 328 324 323 324 325 325 322 311 300 300 296 286 276 265 261 262 264 264 256 229 203 194 186 173 164 163 166 164 160 157 153 149 148 149 151 151 149 150 152 149 143 142 141 135 129 128 129 120 88 12 356 350 343 338 339 343 345 346 347 346
15 12 6 3 358 353 353 355 354 353 352 349 345 340 337 338 337 332 330 329 326 325 322 318 318 319 316 314 313 313 316 318 310 291 280 277 273 269 267 269 271 261 238 222 209 192 183 178 172 169 165 157 151 153 155 152 149 148 148 150 150 150 149 147 145 142 141 139 129 122 126 124 96 31 357 349 345 341 339 341 344 345 347 346 342
1 0 358 355 353 354 355 354 351 348 346 344 342 339 336 335 334 333 332 330 325 319 315 310 308 309 310 310 307 300 299 308 307 289 275 268 263 263 265 263 255 244 227 211 197 183 173 167 163 162 159 155 156 158 161 162 158 154 153 155 156 156 152 147 146 145 140 131 120 117 117 95 61 28 0 348 344 341 339 340 341 342 346 349 345
343 349 352 350 352 357 355 350 349 347 344 343 343 342 337 333 332 331 327 325 322 317 314 313 311 306 304 306 307 300 294 299 303 291 276 266 256 254 258 256 246 236 225 206 186 175 170 165 160 156 157 161 165 166 168 170 165 159 159 159 156 156 154 151 150 148 141 134 126 115 101 78 56 29 358 343 340 340 338 336 334 333 342 351 346
344 347 347 346 347 348 346 351 357 358 353 349 348 346 342 336 332 329 326 326 329 328 324 324 323 315 307 305 307 304 297 296 302 296 282 272 259 248 247 249 242 225 210 197 184 176 173 170 165 164 167 171 173 173 176 175 167 160 159 157 154 155 154 151 150 148 139 132 122 109 105 98 73 37 356 341 339 337 330 323 320 326 342 349 341
355 350 342 337 339 342 348 360 5 358 349 343 339 337 336 334 330 326 323 325 330 330 329 329 326 319 312 307 305 303 297 295 301 301 289 277 265 248 239 236 229 213 203 200 194 185 180 177 174 174 175 177 178 181 182 178 168 160 157 157 158 158 156 154 154 148 137 132 131 130 128 115 80 34 357 339 323 314 306 305 315 331 343 344 335
356 353 345 338 340 346 353 358 354 345 338 335 332 329 328 328 327 323 320 320 321 323 325 326 324 319 314 311 309 306 304 305 308 304 291 279 269 249 230 219 210 203 204 209 208 199 190 185 182 180 179 180 182 183 183 179 173 165 162 163 163 160 158 157 155 150 146 145 141 136 127 104 69 31 7 348 321 308 309 318 330 341 343 338 331
354 349 349 348 349 354 356 352 348 344 340 338 338 336 334 331 326 322 321 321 321 322 323 324 326 325 321 318 317 314 315 321 319 304 283 272 267 247 222 212 209 209 210 212 211 204 196 190 187 185 184 186 188 186 186 186 182 173 167 168 166 161 158 157 156 156 153 146 139 133 121 96 64 37 25 21 16 13 356 348 346 342 333 329 331
354 348 355 360 358 357 357 354 351 349 348 348 349 348 345 341 336 331 329 327 326 327 326 327 331 334 335 337 337 330 329 332 327 311 287 272 263 242 222 217 216 215 214 212 208 205 201 195 193 193 192 190 187 184 186 191 188 176 169 169 166 161 158 157 158 158 152 144 139 134 113 72 38 26 27 29 29 33 16 1 352 334 324 327 334
351 351 360 3 359 357 358 358 357 357 357 356 353 351 349 348 345 341 339 337 334 332 330 331 337 341 343 349 356 348 337 336 332 324 309 288 259 226 216 218 220 219 217 213 209 209 207 202 200 199 194 188 183 181 184 190 186 174 167 165 162 158 157 156 156 154 150 144 140 132 96 49 40 33 30 38 54 56 26 357 342 328 322 327 333
350 352 354 357 2 7 9 7 7 8 6 3 1 0 357 354 351 350 348 345 341 336 334 335 340 341 339 344 352 350 344 345 346 345 343 326 245 209 208 215 220 222 220 215 210 206 201 195 194 193 189 183 177 174 175 177 173 165 162 161 159 158 158 157 155 154 151 145 142 136 104 98 98 59 46 64 84 63 7 346 339 335 329 325 326
345 341 343 357 14 22 22 22 23 24 22 17 16 15 10 6 7 7 3 359 356 355 354 350 344 341 343 348 351 352 359 7 10 17 41 61 156 199 207 216 220 219 216 209 199 193 188 185 183 180 175 169 164 162 164 166 163 159 159 159 158 156 156 158 159 159 156 151 148 144 132 131 127 100 89 98 95 26 355 345 339 337 333 329 330
339 330 338 23 37 30 30 37 40 37 30 20 18 20 18 15 18 19 17 15 14 11 9 6 358 356 8 14 10 16 43 48 40 46 75 87 110 155 179 197 208 209 202 192 185 182 178 170 162 158 158 158 158 159 161 162 161 158 157 157 155 154 154 157 159 161 161 158 154 149 143 136 131 127 129 123 51 18 12 348 335 335 337 338 340
338 332 346 71 61 42 39 47 48 41 30 17 12 15 18 18 21 23 20 18 16 13 13 17 16 18 27 30 33 60 82 83 78 80 91 102 112 125 139 157 176 182 179 175 173 170 164 157 153 154 157 159 160 161 161 161 160 158 156 156 156 154 154 156 158 165 170 168 162 158 150 138 136 140 144 102 30 39 32 331 333 339 342 343 344
355 7 76 89 73 62 64 63 50 41 34 22 13 14 20 21 22 22 21 24 29 34 39 43 44 49 60 69 79 88 90 91 92 93 96 100 103 106 113 127 143 152 155 155 155 157 155 150 148 149 153 155 158 161 160 159 159 157 155 155 154 154 156 160 164 171 179 174 162 159 155 150 147 146 136 85 64 65 340 334 341 346 348 348 346
22 75 109 100 78 76 80 75 55 39 30 19 11 17 25 26 24 25 32 47 57 61 64 66 69 74 78 84 89 90 88 90 94 96 96 96 95 94 98 105 113 122 129 132 136 143 144 139 135 136 139 142 145 146 146 146 148 150 150 152 153 155 158 163 164 166 169 164 158 162 166 162 156 149 132 116 109 1 343 347 350 352 355 354 349
48 92 113 104 85 76 71 62 49 36 24 18 21 30 35 35 35 41 53 64 71 74 79 81 83 86 87 88 90 91 90 91 93 95 96 97 96 95 96 98 102 107 111 116 121 126 128 129 129 130 130 130 130 130 130 131 132 132 132 137 144 146 147 149 150 150 151 153 159 168 171 167 159 146 136 137 140 339 348 355 357 357 0 1 353
77 101 109 99 83 75 68 57 48 44 38 35 35 38 40 43 50 61 71 76 78 81 86 89 90 92 93 92 93 95 96 97 98 98 99 100 100 100 99 98 99 100 102 106 111 115 119 124 127 127 127 127 126 126 126 126 125 121 116 117 124 131 134 137 137 135 136 143 154 162 166 164 153 137 128 140 224 322 345 358 3 3 3 359 352
113 111 115 104 86 80 74 64 54 49 45 41 40 44 51 56 64 76 86 90 91 91 92 93 95 96 95 95 96 97 98 100 102 101 101 101 101 103 103 101 99 99 99 100 104 107 112 118 122 124 127 129 129 128 128 126 121 113 107 105 113 124 131 131 127 127 131 138 147 156 160 155 145 136 117 111 258 304 336 357 10 13 6 352 343
154 129 125 114 106 105 94 72 61 55 47 43 45 56 67 72 78 86 94 98 99 100 99 99 100 100 99 100 101 101 101 103 104 104 104 104 103 103 104 102 102 102 101 102 105 109 113 117 119 121 125 128 128 128 127 121 115 109 104 103 111 123 129 127 121 122 128 132 143 156 159 151 144 137 86 63 285 310 333 353 7 10 1 344 342
180 154 141 125 120 126 119 89 76 68 56 49 50 62 80 86 85 91 100 104 105 106 106 105 105 106 104 104 105 105 106 106 106 107 108 109 109 109 109 108 108 107 108 110 114 118 120 120 120 120 122 122 120 119 115 112 113 116 114 111 114 122 127 125 119 118 123 125 131 144 149 144 141 119 52 60 39 344 340 337 347 356 353 336 340
190 170 159 146 136 138 136 113 88 73 63 58 53 59 82 96 97 98 105 109 111 113 115 113 112 112 111 109 109 108 107 106 107 109 111 113 115 116 116 115 114 114 115 118 122 125 125 122 118 116 116 114 112 111 110 112 121 130 128 121 118 121 125 126 121 120 122 123 125 132 137 131 118 86 60 57 28 6 359 322 329 346 350 336 338
190 178 171 163 152 148 148 136 104 81 83 88 73 62 76 100 109 111 112 114 117 119 121 121 120 119 118 116 113 110 109 109 110 112 116 118 121 123 123 122 122 121 122 126 128 127 125 121 115 112 113 111 109 111 114 119 127 132 130 123 120 122 125 127 125 123 125 126 126 129 126 104 88 76 62 53 29 0 356 342 330 336 341 333 332